TimeWET,TemperatureF,Dew PointF,Humidity,Sea Level PressureIn,VisibilityMPH,Wind Direction,Wind SpeedMPH,Gust SpeedMPH,PrecipitationIn,Events,Conditions,WindDirDegrees,DateUTC
12:00 AM,53,47,74,30.25,6,East,4.6,,,,Scattered Clouds,90,2013-12-08 00:00:00
12:00 AM,53.6,46.4,77,30.24,6.2,East,4.6,-,N/A,,Partly Cloudy,90,2013-12-08 00:00:00
12:30 AM,51.8,46.4,82,30.24,6.2,ESE,5.8,-,N/A,,Partly Cloudy,110,2013-12-08 00:30:00
1:00 AM,51.8,46.4,82,30.21,6.2,East,2.3,-,N/A,,Partly Cloudy,100,2013-12-08 01:00:00
1:30 AM,51.8,46.4,82,30.21,6.2,Calm,Calm,-,N/A,,Partly Cloudy,0,2013-12-08 01:30:00
2:00 AM,51.8,46.4,82,30.21,6.2,ESE,1.2,-,N/A,,Partly Cloudy,120,2013-12-08 02:00:00
2:30 AM,50.0,44.6,82,30.21,6.2,Calm,Calm,-,N/A,,Partly Cloudy,0,2013-12-08 02:30:00
3:00 AM,48,44,83,30.24,6,SE,2.3,,,,Scattered Clouds,130,2013-12-08 03:00:00
3:00 AM,48.2,44.6,87,30.21,6.2,Variable,2.3,-,N/A,,Partly Cloudy,0,2013-12-08 03:00:00
3:30 AM,50.0,44.6,82,30.21,6.2,North,1.2,-,N/A,,Partly Cloudy,360,2013-12-08 03:30:00
4:00 AM,50.0,44.6,82,30.21,6.2,Calm,Calm,-,N/A,,Partly Cloudy,0,2013-12-08 04:00:00
4:30 AM,48.2,44.6,87,30.21,6.2,SSE,3.5,-,N/A,,Partly Cloudy,150,2013-12-08 04:30:00
5:00 AM,48.2,44.6,87,30.21,6.2,SSE,3.5,-,N/A,,Partly Cloudy,150,2013-12-08 05:00:00
5:30 AM,48.2,44.6,87,30.21,6.2,Variable,1.2,-,N/A,,Partly Cloudy,0,2013-12-08 05:30:00
5:47 AM,48,44,81,30.25,6,Calm,Calm,,,,Scattered Clouds,,2013-12-08 05:47:00
6:00 AM,48.2,44.6,87,30.21,6.2,Calm,Calm,-,N/A,,Partly Cloudy,0,2013-12-08 06:00:00
6:30 AM,46.4,44.6,93,30.21,6.2,West,1.2,-,N/A,,Partly Cloudy,270,2013-12-08 06:30:00
7:00 AM,46.4,44.6,93,30.24,6.2,SE,3.5,-,N/A,,Partly Cloudy,130,2013-12-08 07:00:00
7:30 AM,44.6,44.6,100,30.24,6.2,SE,2.3,-,N/A,,Partly Cloudy,140,2013-12-08 07:30:00
8:00 AM,46.4,44.6,93,30.24,6.2,Variable,2.3,-,N/A,,Partly Cloudy,0,2013-12-08 08:00:00
8:30 AM,50.0,46.4,87,30.24,6.2,ENE,2.3,-,N/A,,Partly Cloudy,60,2013-12-08 08:30:00
9:00 AM,52,46,74,30.28,6,Calm,Calm,,,,Scattered Clouds,,2013-12-08 09:00:00
9:00 AM,51.8,46.4,82,30.27,6.2,Calm,Calm,-,N/A,,Partly Cloudy,0,2013-12-08 09:00:00
9:30 AM,55.4,48.2,77,30.27,6.2,Calm,Calm,-,N/A,,Partly Cloudy,0,2013-12-08 09:30:00
10:00 AM,57.2,46.4,67,30.27,6.2,NNE,4.6,-,N/A,,Partly Cloudy,30,2013-12-08 10:00:00
10:30 AM,59.0,44.6,59,30.27,-9999.0,NNE,3.5,-,N/A,,Clear,30,2013-12-08 10:30:00
11:00 AM,60.8,46.4,59,30.27,-9999.0,NNE,3.5,-,N/A,,Clear,30,2013-12-08 11:00:00
11:30 AM,62.6,44.6,52,30.27,-9999.0,Variable,3.5,-,N/A,,Clear,0,2013-12-08 11:30:00
12:00 PM,65,45,38,30.22,6,North,3.5,,,,Scattered Clouds,350,2013-12-08 12:00:00
12:00 PM,64.4,44.6,49,30.24,6.2,North,3.5,-,N/A,,Partly Cloudy,350,2013-12-08 12:00:00
12:30 PM,66.2,44.6,46,30.24,6.2,ENE,3.5,-,N/A,,Partly Cloudy,60,2013-12-08 12:30:00
1:00 PM,68.0,44.6,43,30.21,6.2,Variable,3.5,-,N/A,,Partly Cloudy,0,2013-12-08 13:00:00
1:30 PM,68.0,42.8,40,30.21,6.2,ENE,4.6,-,N/A,,Partly Cloudy,70,2013-12-08 13:30:00
2:00 PM,69.8,42.8,38,30.18,6.2,East,8.1,-,N/A,,Partly Cloudy,90,2013-12-08 14:00:00
2:30 PM,69.8,41.0,35,30.18,6.2,ENE,8.1,-,N/A,,Partly Cloudy,70,2013-12-08 14:30:00
3:00 PM,72,40,21,30.13,6,ENE,8.1,,,,Scattered Clouds,60,2013-12-08 15:00:00
3:00 PM,71.6,39.2,31,30.18,6.2,ENE,8.1,-,N/A,,Partly Cloudy,60,2013-12-08 15:00:00
3:30 PM,71.6,39.2,31,30.18,6.2,ENE,8.1,-,N/A,,Scattered Clouds,60,2013-12-08 15:30:00
4:00 PM,71.6,37.4,29,30.18,6.2,NE,9.2,-,N/A,,Scattered Clouds,40,2013-12-08 16:00:00
4:30 PM,69.8,37.4,31,30.18,6.2,NE,11.5,-,N/A,,Scattered Clouds,40,2013-12-08 16:30:00
5:00 PM,69.8,37.4,31,30.18,6.2,NE,10.4,-,N/A,,Scattered Clouds,40,2013-12-08 17:00:00
5:30 PM,68.0,37.4,33,30.18,6.2,NNE,9.2,-,N/A,,Scattered Clouds,30,2013-12-08 17:30:00
6:00 PM,65,38,25,30.16,6,NE,6.9,,,,Scattered Clouds,40,2013-12-08 18:00:00
6:00 PM,66.2,39.2,37,30.18,6.2,NE,6.9,-,N/A,,Scattered Clouds,40,2013-12-08 18:00:00
6:30 PM,64.4,37.4,37,30.18,6.2,NE,5.8,-,N/A,,Scattered Clouds,40,2013-12-08 18:30:00
7:00 PM,62.6,35.6,37,30.18,6.2,NE,4.6,-,N/A,,Scattered Clouds,40,2013-12-08 19:00:00
7:30 PM,60.8,37.4,42,30.18,6.2,ENE,4.6,-,N/A,,Partly Cloudy,60,2013-12-08 19:30:00
8:00 PM,59.0,39.2,48,30.21,6.2,East,6.9,-,N/A,,Partly Cloudy,100,2013-12-08 20:00:00
8:30 PM,59.0,41.0,51,30.21,6.2,ESE,6.9,-,N/A,,Partly Cloudy,120,2013-12-08 20:30:00
9:00 PM,57,43,49,30.21,6,ESE,4.6,,,,,120,2013-12-08 21:00:00
9:00 PM,57.2,42.8,59,30.21,-9999.0,ESE,4.6,-,N/A,,Clear,120,2013-12-08 21:00:00
9:30 PM,53.6,44.6,72,30.21,-9999.0,ESE,4.6,-,N/A,,Clear,110,2013-12-08 21:30:00
10:00 PM,51.8,44.6,76,30.21,-9999.0,ESE,4.6,-,N/A,,Clear,120,2013-12-08 22:00:00
10:30 PM,55.4,41.0,58,30.21,-9999.0,NNE,4.6,-,N/A,,Clear,20,2013-12-08 22:30:00
11:00 PM,53.6,42.8,67,30.21,-9999.0,East,5.8,-,N/A,,Clear,100,2013-12-08 23:00:00
11:30 PM,51.8,42.8,71,30.21,-9999.0,East,2.3,-,N/A,,Clear,100,2013-12-08 23:30:00